Disclaimer

Please do not use the information listed here in-flight or in-navigation, as they are not provided to us by the airports but are provided by volunteers, so they might be outdated.

Search


Regions


Airport information page

No radio frequency information is available.

Airport informations:
Latitude: 31° 11' 52.35" N
Longitude: 121° 20' 10.75" E
Elevation: 10 feet - 3 meters
Operating hours: Remarks
Operating agency: Civil government, landing fees and diplomatic clearance may be required
Timezone: UTC+8
Fuel: Jet A1+, Jet A1 with icing inhibitor.

Runway information:
18/36 - 11154 x 190 feet< - >3400 x 58 meters

Recent METARs:
ZSSS 171030Z 35003MPS CAVOK 06/M03 Q1029 NOSIG
ZSSS 171030Z 35003MPS CAVOK 06/M03 Q1029 NOSIG
ZSSS 171130Z 02002MPS 340V070 CAVOK 04/M02 Q1029 NOSIG

Airport on the map: